[ hide orbit diagram ]
For accurate long-term ephemerides, please instead use our Horizons system.This orbit viewer was implemented using two-body methods, and hence should not be used for determining accurate long-term trajectories (over several years or decades) or planetary encounter circumstances.
Orbital Elements at Epoch 2459000.5 (2020-May-31.0) TDB
Reference: JPL 32 (heliocentric ecliptic J2000)
Element | Value | Uncertainty (1-sigma) | Units |
e | .2904882807764169 | 3.9369e-08 | |
a | 3.063070015647427 | 1.503e-08 | au |
q | 2.173284072904214 | 1.182e-07 | au |
i | 9.500159133389493 | 4.2583e-06 | deg |
node | 213.9795951747764 | 2.0699e-05 | deg |
peri | 321.5239498597977 | 2.1321e-05 | deg |
M | 163.0431332831285 | 7.0857e-06 | deg |
tp | 2458113.683377503340 (2017-Dec-26.18337750) | 3.5647e-05 | TDB |
period | 1958.095245534843 5.36 | 1.4412e-05 3.946e-08 | d yr |
n | .1838521393792915 | 1.3532e-09 | deg/d |
Q | 3.952855958390641 | 1.9396e-08 | au |
|
| | Orbit Determination Parameters
Additional Information
|
[ show covariance matrix ]
Physical Parameter Table
Parameter |
Symbol |
Value |
Units |
Sigma |
Reference |
Notes |
absolute magnitude |
H |
12.4 |
|
n/a |
MPO350821 |
|
diameter |
diameter |
11.808 |
km |
0.093 |
urn:nasa:pds:neowise_diameters_albedos::2.0[mainbelt] (http://adsabs.harvard.edu/abs/2011ApJ...741...68M) |
|
rotation period |
rot_per |
2.9392 |
h |
n/a |
LCDB (Rev. 2020-October); Warner et al., 2009 |
Published Reference List: [Molnar, L.A.; Haegert, M.J. (2007) Minor Planet Bull. 34, 126-128.] |
geometric albedo |
albedo |
0.139 |
|
0.023 |
urn:nasa:pds:neowise_diameters_albedos::2.0[mainbelt] (http://adsabs.harvard.edu/abs/2011ApJ...741...68M) |
|
|
2658 Gingerich (1980 CK) Discovered 1980-Feb-13 by Harvard College at Agassiz Station |
Discovered at Oak Ridge Observatory (until 1981 Harvard College's Agassiz Station). The principal observers are R. E. McCrosky, C.-Y. Shao, G. Schwartz, and J. H. Bulger, with some assistance from others. |
Reference: DISCOVERY.DB | Last Updated: 2003-08-29 |
|
[ show close-approach data ]
Alternate Designations
1980 CK = 1932 HH = 1959 JO = 1975 JK |
|
|